DateTimeUTC,F1_A11,F1_S11,BsB_S11,BsG_S11,BsR_S11,BbsB_S11,BbsG_S11,BbsR_S11,BaB_A11,BaG_A11,BaR_A11,Tu_S11,T_S11,Uu_S11,U_S11,P_S11,T1_A11
2021-05-18T16:00:00Z,00000200,20000000,,,,,,,-000.12,-000.25,0000.25,17.5,23.7,01.5,01.0,0678.5,30.9
2021-05-18T16:01:00Z,00000200,20000000,,,,,,,0000.33,0000.30,-000.05,17.5,23.7,01.5,01.0,0678.5,30.9
2021-05-18T16:02:00Z,00000200,20000000,,,,,,,0000.15,0000.02,-000.15,17.5,23.7,01.5,01.0,0678.5,30.9
2021-05-18T16:03:00Z,00000200,60000000,,,,,,,0000.28,0000.27,0000.40,17.5,23.8,01.5,01.0,0678.5,30.9
2021-05-18T16:04:00Z,00000200,41000000,0001.48,0000.79,0000.40,0000.36,0000.19,-000.04,0000.49,0000.42,0000.35,17.6,23.7,01.6,01.1,0679.5,30.9
2021-05-18T16:05:00Z,00000200,01000000,0000.98,0000.97,0000.17,0000.36,0000.16,-000.20,0000.38,0000.54,0000.18,17.7,23.7,01.6,01.1,0679.5,30.9
2021-05-18T16:06:00Z,00000200,01000000,0000.63,0000.56,0000.21,0000.53,-000.00,0000.20,0000.77,0000.55,0000.25,17.7,23.6,01.5,01.1,0679.5,30.9
2021-05-18T16:07:00Z,00000200,01000000,0001.03,0001.05,0000.44,-000.01,0000.16,0000.26,0000.06,0000.29,0000.68,17.7,23.7,01.5,01.0,0679.5,30.9
2021-05-18T16:08:00Z,00000200,01000000,0001.18,0000.85,0000.34,-000.05,0000.35,0000.21,0000.22,0000.18,-000.62,17.7,23.7,01.6,01.1,0679.6,30.9
2021-05-18T16:09:00Z,00000200,01000000,0001.08,0000.98,0000.26,-000.05,0000.14,0000.04,0000.54,0000.54,0000.80,17.7,23.7,01.6,01.1,0679.6,30.9
2021-05-18T16:10:00Z,00000200,01000000,0000.07,0000.75,0000.46,0000.66,-000.17,0000.24,0000.39,0000.07,0000.46,17.8,23.7,01.6,01.1,0679.6,30.9
2021-05-18T16:11:00Z,00000200,01000000,0001.14,0000.86,0000.46,-000.12,0000.16,0000.26,0000.37,0000.77,0000.15,17.8,23.7,01.6,01.1,0679.6,30.9
2021-05-18T16:12:00Z,00000200,01000000,0001.31,0000.86,0000.67,0000.39,0000.17,0000.17,0000.49,-000.10,0000.51,17.8,23.7,01.6,01.1,0679.6,30.9
2021-05-18T16:13:00Z,00000200,01000000,0001.11,0000.67,0000.36,0000.07,0000.11,-000.14,0000.41,0000.49,-000.03,17.8,23.7,01.6,01.1,0679.6,30.9
2021-05-18T16:14:00Z,00000200,01000000,0000.08,0000.79,0000.67,0000.20,0000.16,0000.32,0000.26,0000.24,0000.37,17.8,23.7,01.5,01.1,0679.6,30.9
2021-05-18T16:15:00Z,00000200,01000000,0001.39,0000.81,0000.41,0000.08,-000.07,0000.16,-000.04,0000.32,0000.25,17.9,23.7,01.5,01.0,0679.6,30.9
2021-05-18T16:16:00Z,00000200,01000000,0001.15,0000.92,0000.25,0000.45,-000.11,0000.24,0001.08,0001.02,0000.59,17.9,23.7,01.6,01.1,0679.6,30.9
2021-05-18T16:17:00Z,00000200,01000000,0002.10,0000.77,0000.45,-000.12,0000.12,0000.01,0000.15,0000.13,0000.19,17.9,23.8,01.6,01.1,0679.6,30.9
2021-05-18T16:18:00Z,00000200,01000000,0001.28,0000.58,0000.43,-000.14,-000.18,0000.08,0000.25,-000.06,-000.05,17.9,23.8,01.5,01.0,0679.6,30.9
2021-05-18T16:19:00Z,00000200,01000000,0001.17,0000.55,0000.51,0000.51,-000.05,0000.23,0000.27,0000.31,0000.49,17.9,23.8,01.5,01.0,0679.6,30.9
2021-05-18T16:20:00Z,00000200,01000000,0000.76,0000.65,0000.48,0000.56,0000.04,0000.35,0000.73,0000.49,0000.49,17.9,23.8,01.5,01.0,0679.6,30.9
2021-05-18T16:21:00Z,00000200,01000000,0000.70,0001.04,0000.38,0000.02,-000.10,0000.05,0000.17,0000.45,-000.14,18.0,23.8,01.4,01.0,0679.6,30.9
2021-05-18T16:22:00Z,00000200,01000000,0000.59,0001.03,0000.18,0000.66,0000.02,0000.19,0000.61,0000.46,0000.54,18.0,23.8,01.5,01.1,0679.6,30.9
2021-05-18T16:23:00Z,00000200,01000000,0001.24,0000.75,0000.19,0000.36,0000.08,0000.18,0000.07,0000.05,0000.34,18.0,23.8,01.6,01.1,0679.6,30.9
2021-05-18T16:24:00Z,00000200,01000000,0000.96,0001.08,0000.67,0000.89,0000.07,0000.39,0000.50,0000.94,0000.05,18.0,23.9,01.5,01.1,0679.6,30.9
2021-05-18T16:25:00Z,00000200,01000000,0001.56,0000.59,0000.40,0000.29,-000.12,0000.41,0000.28,0000.03,0000.37,18.0,23.9,01.5,01.1,0679.6,30.9
2021-05-18T16:26:00Z,00000200,01000000,0001.88,0000.92,0000.32,0000.67,0000.00,0000.15,0000.51,0000.33,0000.44,18.1,23.9,01.6,01.1,0679.6,30.9
2021-05-18T16:27:00Z,00000200,01000000,0001.38,0000.72,0000.14,0000.20,0000.05,-000.04,0000.41,0000.52,0000.31,18.1,23.9,01.6,01.1,0679.6,30.9
2021-05-18T16:28:00Z,00000200,01000000,0001.64,0000.52,0000.61,0000.16,0000.13,0000.28,0000.21,0000.04,-000.07,18.1,23.9,01.5,01.0,0679.6,31.0
2021-05-18T16:29:00Z,00000200,01000000,0000.89,0000.66,0000.58,0000.11,-000.09,0000.31,0000.19,0000.13,0000.52,18.1,23.9,01.5,01.1,0679.6,31.0
2021-05-18T16:30:00Z,00000200,01000000,0000.77,0000.80,0000.56,0000.73,0000.01,-000.07,0000.63,0000.86,0000.12,18.1,23.9,01.5,01.1,0679.6,31.0
2021-05-18T16:31:00Z,00000200,01000000,0001.44,0000.48,0000.40,0000.19,-000.04,0000.21,0000.74,0000.51,0000.49,18.1,24.0,01.5,01.1,0679.6,30.9
2021-05-18T16:32:00Z,00000200,01000000,0000.73,0000.92,0000.56,0000.03,0000.11,0000.08,0000.27,0000.26,0000.37,18.2,24.0,01.5,01.0,0679.6,30.9
2021-05-18T16:33:00Z,00000200,01000000,0001.75,0000.64,0000.59,0000.28,-000.22,0000.47,0000.78,0000.69,0000.23,18.2,24.0,01.4,01.0,0679.6,30.9
2021-05-18T16:34:00Z,00000200,01000000,0001.25,0000.68,0000.44,0000.37,-000.39,0000.30,0000.69,0000.37,0000.55,18.2,24.0,01.5,01.1,0679.6,30.9
2021-05-18T16:35:00Z,00000200,01000000,0001.35,0000.76,0000.55,0000.38,-000.00,0000.18,0000.31,0000.21,-000.04,18.2,24.0,01.5,01.1,0679.6,30.9
2021-05-18T16:36:00Z,00000200,01000000,0000.77,0000.75,0000.60,0000.10,-000.08,0000.48,0000.32,0000.56,0000.75,18.2,24.0,01.5,01.1,0679.6,30.9
2021-05-18T16:37:00Z,00000200,01000000,0000.68,0000.60,0000.37,0000.54,0000.05,0000.20,0000.27,0000.55,0000.19,18.3,24.1,01.4,01.0,0679.7,30.9
2021-05-18T16:38:00Z,00000200,01000000,0001.85,0000.89,0000.63,0000.15,0000.15,0000.14,0000.73,0000.51,0000.14,18.3,24.1,01.5,01.1,0679.7,30.9
2021-05-18T16:39:00Z,00000200,01000000,0001.09,0000.70,0000.54,0000.39,0000.02,0000.26,0000.32,0000.03,0000.25,18.3,24.1,01.6,01.1,0679.7,30.9
2021-05-18T16:40:00Z,00000200,01000000,0000.80,0000.76,0000.12,0000.70,-000.12,0000.19,0000.44,0000.36,0000.53,18.3,24.1,01.6,01.1,0679.7,30.9
2021-05-18T16:41:00Z,00000200,01000000,0001.18,0000.85,0000.28,0000.01,0000.28,0000.26,0000.61,0000.50,0000.14,18.3,24.1,01.4,01.0,0679.7,30.9
2021-05-18T16:42:00Z,00000200,01000000,0001.06,0000.84,0000.64,0000.80,-000.17,0000.35,0000.40,0000.40,0000.55,18.3,24.2,01.5,01.1,0679.7,30.9
2021-05-18T16:43:00Z,00000200,01000000,0001.05,0000.83,0000.65,-000.01,0000.08,0000.17,0000.23,0000.38,0000.27,18.3,24.2,01.5,01.0,0679.6,30.9
2021-05-18T16:44:00Z,00000200,01000000,0001.52,0000.97,0000.65,0000.59,-000.04,0000.37,0000.47,0000.19,0000.39,18.3,24.2,01.5,01.1,0679.6,30.9
2021-05-18T16:45:00Z,00000200,01000000,0001.38,0000.83,0000.28,0000.67,0000.04,0000.02,0000.65,0000.74,0000.05,18.3,24.2,01.4,01.0,0679.6,30.9
2021-05-18T16:46:00Z,00000200,01000000,0000.98,0000.80,0000.48,0000.42,0000.01,-000.07,0000.44,0000.24,0000.62,18.3,24.2,01.4,01.0,0679.6,30.9
2021-05-18T16:47:00Z,00000200,01000000,0001.33,0000.63,0000.11,-000.02,0000.15,0000.00,0000.09,0000.26,0000.24,18.4,24.2,01.4,01.0,0679.6,30.9
2021-05-18T16:48:00Z,00000200,01000000,0001.23,0000.65,0000.53,0000.33,0000.10,0000.29,0000.56,0000.68,0000.15,18.4,24.2,01.4,01.0,0679.6,30.9
2021-05-18T16:49:00Z,00000200,01000000,0001.59,0000.66,0000.42,0000.48,0000.16,0000.30,0000.37,0000.35,-000.13,18.4,24.2,01.5,01.0,0679.6,30.9
2021-05-18T16:50:00Z,00000200,01000000,0001.34,0000.61,0000.53,-000.29,-000.05,-000.04,0000.20,0000.30,0000.62,18.4,24.3,01.5,01.0,0679.5,31.0
2021-05-18T16:51:00Z,00000200,01000000,0001.66,0000.83,0000.58,0000.50,0000.08,0000.40,0000.61,0000.29,0000.39,18.4,24.3,01.3,00.9,0679.5,31.0
2021-05-18T16:52:00Z,00000200,01000000,0001.06,0000.98,0000.25,0000.83,0000.00,-000.20,0000.50,0000.47,0000.56,18.4,24.3,01.4,01.0,0679.5,31.0
2021-05-18T16:53:00Z,00000200,01000000,0001.10,0000.82,0000.72,-000.05,0000.19,0000.49,0000.69,0000.41,0000.50,18.4,24.3,01.3,00.9,0679.5,30.9
2021-05-18T16:54:00Z,00000200,01000000,0001.61,0000.69,0000.34,-000.18,0000.04,0000.09,0000.12,0000.80,-000.00,18.5,24.3,01.3,00.9,0679.5,31.0
2021-05-18T16:55:00Z,00000200,01000000,0001.14,0000.75,0000.55,0000.43,0000.11,0000.22,0000.58,0000.04,0000.17,18.5,24.3,01.3,00.9,0679.5,31.0
2021-05-18T16:56:00Z,00000200,01000000,0001.25,0000.95,0000.56,0000.10,0000.33,0000.17,0000.35,0000.35,0000.47,18.5,24.4,01.3,00.9,0679.5,31.0
2021-05-18T16:57:00Z,00000200,41000000,,,,,,,0000.14,0000.13,-000.12,18.5,24.4,01.6,01.1,0679.5,31.0
2021-05-18T16:58:00Z,00000200,61000000,,,,,,,0000.07,0000.36,0000.19,18.4,24.5,01.2,00.8,0678.4,31.0
2021-05-18T16:59:00Z,00000200,21000000,,,,,,,0000.21,-000.08,-000.03,18.4,24.6,01.2,00.8,0678.4,31.0
